Orbital Elements
Epoch 2003 June 10.0 TT = JDT 2452800.5
T 2003 June 27.00486 TT MPC
q 3.3870767 (2000.0) P Q
n 0.04657329 Peri. 217.57066 +0.40232477 -0.91078988
a 7.6508812 Node 209.04628 +0.87944782 +0.41263531
e 0.5572959 Incl. 11.00925 +0.25437434 +0.01392476
P 21.16
>From 171 observations 2002 Sept. 15-2003 Aug. 31, mean residual 0".59.
|